This is the latest recevied weather packets stored in our database for station/object HK6REC-21. If no packets are shown the sender has not sent any weather packets the latest 10 day(s).
| Time | Temp. | Humidity | Pressure | Rain* | Wind** | Luminosity | Snow |
|---|---|---|---|---|---|---|---|
| 1778013356 | 21.67° C | 83% | 1009 hPa | 0 mm | - | - | - |
| 1778012155 | 22.22° C | 83% | 1010 hPa | 0 mm | - | - | - |
| 1778010954 | 22.22° C | 83% | 1009 hPa | 0 mm | - | - | - |
| 1778009753 | 22.22° C | 83% | 1009 hPa | 0 mm | - | - | - |
| 1778008552 | 22.78° C | 83% | 1011 hPa | 0 mm | - | - | - |
| 1778007351 | 23.33° C | 81% | 1010 hPa | 0 mm | - | - | - |
| 1778006150 | 23.33° C | 81% | 1010 hPa | 0 mm | - | - | - |
| 1778004949 | 23.89° C | 80% | 1012 hPa | 0 mm | - | - | - |
| 1778003748 | 23.33° C | 83% | 1012 hPa | 0 mm | - | - | - |
| 1778002547 | 24.44° C | 83% | 1012 hPa | 0 mm | - | - | - |
| 1778001346 | 21.67° C | 91% | 1014 hPa | 0 mm | - | - | - |
| 1778000145 | 22.22° C | 92% | 1013 hPa | 0 mm | - | - | - |
| 1777998944 | 21.11° C | 93% | 1013 hPa | 0 mm | - | - | - |
| 1777997743 | 21.11° C | 93% | 1015 hPa | 0 mm | - | - | - |
| 1777996543 | 21.11° C | 94% | 1014 hPa | 0 mm | - | - | - |
| 1777995342 | 20° C | 99% | 1014 hPa | 0 mm | - | - | - |
| 1777994141 | 19.44° C | 99% | 1015 hPa | 0 mm | - | - | - |
| 1777992939 | 20° C | 10% | - | 0 mm | - | - | - |
| 1777991739 | 19.44° C | 10% | - | 0 mm | - | - | - |
| 1777990537 | 18.33° C | 10% | - | 0 mm | - | - | - |
| 1777989337 | 18.89° C | 10% | - | 0 mm | - | - | - |
| 1777988136 | 16.67° C | 96% | 1015 hPa | 0 mm | - | - | - |
| 1777986935 | 17.22° C | 95% | 1016 hPa | 0 mm | - | - | - |
| 1777985734 | 17.22° C | 94% | 1015 hPa | 0 mm | - | - | - |
| 1777984533 | 15.56° C | 96% | 1015 hPa | 0 mm | - | - | - |
* Rain latest hour (hover to see other rain measurements)
** Current wind speed in m/s (hover to see current wind gust speed)